OPS 7898 (P/L 1)

导读

OPS 7898 (P/L 1)是美国于1971年12月14日发射的卫星,同箭还搭载了P/L 2等载荷。该卫星运行在近地轨道,倾角约70度,至今已在轨超过五万天,日均绕地球运行约13.7圈。作为美国早期航天任务的组成部分,它为美国空间技术积累了宝贵的在轨运行经验,在冷战时期航天探索中具有一定的历史意义。

基本信息
目录编号:
5678
目录名称:
OPS 7898 (P/L 1)
国际标识:
1971-110A
轨道中心:
EARTH
卫星名称:
OPS 7898 (P/L 1)
卫星全名:
--
卫星状态:
在轨 (已飞行19936 天)
发射日期:
1971-12-14 UTC
国别 :
美国 (US)
星等 :
--
轨道信息
数据来源 国际轨道数据
星历时间: 2026-07-13T22:19:29+0800
13小时前
查看轨道信息
半长轴: 7362.878km
偏心率: 0.0007186
轨道倾角: 69.991°
近地点辐角 169.417°
升交点赤经 330.046°
平近点角 190.708°
近地点: 979.45km
远地点: 990.032km
周期: 104.793分钟
每日圈数: 13.741412
详细信息
使用方式:
暂无
2D轨道图
3D轨道图
轨道高度分析图
轨道倾角分析图
轨道综合分析图
查看轨道综合分析图